Home   Weather   Milton Keynes   Past weeks

Flag for United Kingdom Past Weather in Milton Keynes, England, United Kingdom — Yesterday and Last 2 Weeks

54 °F

Scattered clouds.

Feels Like: 50 °F
Forecast: 42 / 54 °F
Wind: 10 mph from North

Location: Cranfield

Current Time: Oct 21, 2016 at 2:19:17 PM

Latest Report: Oct 21, 2016 at 1:50 PM

Visibility: N/A

Pressure: 30.09 "Hg

Humidity: 82%

Dew Point: 48 °F

Location of Milton KeynesLocation

Past Weather in Milton Keynes — Graph


Milton Keynes Temperature Yesterday

Maximum temperature yesterday: 57 °F (at 12:20 PM)
Minimum temperature yesterday: 50 °F (at 7:50 AM)
Average temperature yesterday: 54 °F

High & Low Weather Summary for the Past Weeks

High61 °F (Oct 17, 1:50 PM)100% (Oct 10, 8:20 AM)30.33 "Hg (Oct 10, 8:20 AM)
Low37 °F (Oct 11, 7:50 AM)55% (Oct 6, 12:20 PM)29.68 "Hg (Oct 14, 3:50 PM)
Average53 °F81%30.11 "Hg
* Reported Oct 6 12:20 PM — Oct 21 12:50 PM, Milton Keynes, Weather by CustomWeather, © 2016

Note: Actual official high and low records may vary slightly from our data, if they occured in-between our weather recording intervals... More about our weather records


Milton Keynes Weather History for the Previous 24 Hours

Scroll right to see more
Time TempWeatherWind HumidityBarometerVisibility
12:50 PM
Fri, Oct 21
52 °FPassing clouds.9 mph82%30.12 "HgN/A
12:20 PM54 °FPassing clouds.8 mph82%30.12 "HgN/A
11:50 AM52 °FPassing clouds.8 mph88%30.12 "HgN/A
11:20 AM52 °FPassing clouds.8 mph88%30.12 "HgN/A
10:50 AM50 °FPassing clouds.8 mph100%30.12 "HgN/A
10:20 AM50 °FScattered clouds.6 mph94%30.12 "HgN/A
9:50 AM48 °FPartly sunny.6 mph100%30.12 "Hg4 mi
9:20 AM48 °FPartly sunny.7 mph94%30.12 "Hg4 mi
8:50 AM48 °FFog.7 mph94%30.12 "Hg3 mi
8:20 AM45 °FFog.6 mph100%30.12 "Hg2 mi
7:50 AM45 °FFog.7 mph93%30.12 "Hg2 mi
5:20 PM
Thu, Oct 20
52 °FPassing clouds.7 mph82%30.15 "HgN/A
4:50 PM54 °FPassing clouds.13 mph82%30.15 "HgN/A
3:50 PM55 °FPassing clouds.13 mph77%30.15 "HgN/A
3:20 PM55 °FScattered clouds.10 mph77%30.15 "HgN/A
2:50 PM55 °FScattered clouds.13 mph77%30.15 "HgN/A
2:20 PM54 °FPassing clouds.15 mph77%30.15 "HgN/A
Weather by CustomWeather, © 2016

See weather overviewHow to use our weather pages